Torna al catalogo

COSMOS 2085

AttivoMilitareGEO
NORAD 20693·PAYLOAD·🇷🇺 Russia

Lanciato Jul 18, 1990 da Baikonur Cosmodrome

Loading…

TLE

AggiornatoSource: Space-Track

Epoca: Sep 13, 2026, 17:36 UTC

1 20693U 90061A   26256.73375454 -.00000071  00000-0  00000-0 0  9994
2 20693  12.5880 335.8772 0012951  31.2772 320.0433  1.00276169132385

Traccia COSMOS 2085 in tempo reale con AllMySat

Download on the App Store